"Datum/tijd (MEZT)";"SWAN sign golfverwachting";"SWAN swell verwachting";"golfhoogte";"deininghoogte"
2024-04-30 07:00;37;1;32;5
2024-04-30 07:10;37;1;31;5
2024-04-30 07:20;37;1;28;4
2024-04-30 07:30;36;1;26;4
2024-04-30 07:40;36;1;25;4
2024-04-30 07:50;36;1;25;4
2024-04-30 08:00;36;1;24;4
2024-04-30 08:10;36;1;24;4
2024-04-30 08:20;35;1;25;4
2024-04-30 08:30;34;0;25;4
2024-04-30 08:40;34;0;26;4
2024-04-30 08:50;34;0;26;3
2024-04-30 09:00;33;0;25;4
2024-04-30 09:10;33;0;26;4
2024-04-30 09:20;32;0;28;4
2024-04-30 09:30;32;0;28;4
2024-04-30 09:40;32;0;26;4
2024-04-30 09:50;31;0;27;3
2024-04-30 10:00;31;0;28;3
2024-04-30 10:10;31;0;25;3
2024-04-30 10:20;30;0;25;3
2024-04-30 10:30;30;0;25;3
2024-04-30 10:40;30;0;23;3
2024-04-30 10:50;29;0;23;3
2024-04-30 11:00;29;0;23;3
2024-04-30 11:10;29;0;24;3
2024-04-30 11:20;29;0;23;3
2024-04-30 11:30;28;0;23;4
2024-04-30 11:40;28;0;23;4
2024-04-30 11:50;28;0;21;4
2024-04-30 12:00;28;0;21;3
2024-04-30 12:10;28;0;22;3
2024-04-30 12:20;28;0;21;3
2024-04-30 12:30;28;0;21;3
2024-04-30 12:40;28;0;21;3
2024-04-30 12:50;28;0;21;3
2024-04-30 13:00;28;0;23;3
2024-04-30 13:10;28;0;21;3
2024-04-30 13:20;28;0;19;3
2024-04-30 13:30;28;0;19;3
2024-04-30 13:40;28;0;20;3
2024-04-30 13:50;28;0;20;3
2024-04-30 14:00;27;0;21;3
2024-04-30 14:10;27;0;22;3
2024-04-30 14:20;27;0;23;3
2024-04-30 14:30;27;0;23;3
2024-04-30 14:40;27;0;22;3
2024-04-30 14:50;27;0;23;3
2024-04-30 15:00;27;0;23;3
2024-04-30 15:10;27;0;23;3
2024-04-30 15:20;27;0;24;3
2024-04-30 15:30;27;0;25;2
2024-04-30 15:40;27;0;26;2
2024-04-30 15:50;27;0;25;3
2024-04-30 16:00;27;0;25;3
2024-04-30 16:10;27;0;26;3
2024-04-30 16:20;27;0;26;3
2024-04-30 16:30;26;0;27;3
2024-04-30 16:40;26;0;27;3
2024-04-30 16:50;26;0;26;3
2024-04-30 17:00;26;0;26;3
2024-04-30 17:10;26;0;27;3
2024-04-30 17:20;26;0;27;3
2024-04-30 17:30;26;0;28;3
2024-04-30 17:40;25;0;28;3
2024-04-30 17:50;25;0;28;3
2024-04-30 18:00;25;0;29;3
2024-04-30 18:10;25;0;30;3
2024-04-30 18:20;25;0;32;3
2024-04-30 18:30;24;0;31;3
2024-04-30 18:40;24;0;29;3
2024-04-30 18:50;24;0;31;3
2024-04-30 19:00;24;0;29;3
2024-04-30 19:10;24;0;25;3
2024-04-30 19:20;24;0;23;3
2024-04-30 19:30;24;0;23;3
2024-04-30 19:40;23;0;22;3
2024-04-30 19:50;23;0;20;3
2024-04-30 20:00;23;0;19;3
2024-04-30 20:10;23;0;18;3
2024-04-30 20:20;23;0;18;3
2024-04-30 20:30;22;0;18;3
2024-04-30 20:40;22;0;19;3
2024-04-30 20:50;22;0;21;3
2024-04-30 21:00;22;0;21;3
2024-04-30 21:10;22;0;21;3
2024-04-30 21:20;22;0;20;3
2024-04-30 21:30;22;0;20;3
2024-04-30 21:40;22;0;20;3
2024-04-30 21:50;22;0;20;3
2024-04-30 22:00;22;0;20;3
2024-04-30 22:10;22;0;21;3
2024-04-30 22:20;22;0;21;3
2024-04-30 22:30;22;0;22;3
2024-04-30 22:40;23;0;25;3
2024-04-30 22:50;23;0;25;3
2024-04-30 23:00;23;0;24;3
2024-04-30 23:10;23;0;24;3
2024-04-30 23:20;24;0;25;3
2024-04-30 23:30;24;0;26;3
2024-04-30 23:40;24;0;25;3
2024-04-30 23:50;25;0;25;3
2024-05-01 00:00;25;0;23;2
2024-05-01 00:10;25;0;23;2
2024-05-01 00:20;26;0;24;3
2024-05-01 00:30;26;0;25;3
2024-05-01 00:40;26;0;25;3
2024-05-01 00:50;27;0;26;3
2024-05-01 01:00;27;0;27;3
2024-05-01 01:10;28;0;25;3
2024-05-01 01:20;28;0;24;3
2024-05-01 01:30;28;0;26;3
2024-05-01 01:40;29;0;26;3
2024-05-01 01:50;30;0;26;3
2024-05-01 02:00;29;0;28;3
2024-05-01 02:10;29;0;29;3
2024-05-01 02:20;29;0;29;3
2024-05-01 02:30;29;0;30;3
2024-05-01 02:40;29;0;31;3
2024-05-01 02:50;29;0;32;3
2024-05-01 03:00;29;0;33;3
2024-05-01 03:10;29;0;33;3
2024-05-01 03:20;30;0;35;3
2024-05-01 03:30;30;0;38;3
2024-05-01 03:40;30;0;37;3
2024-05-01 03:50;31;0;38;3
2024-05-01 04:00;31;0;40;3
2024-05-01 04:10;32;0;40;3
2024-05-01 04:20;32;0;43;3
2024-05-01 04:30;32;0;47;3
2024-05-01 04:40;33;0;48;3
2024-05-01 04:50;34;0;47;3
2024-05-01 05:00;33;0;45;3
2024-05-01 05:10;34;0;44;3
2024-05-01 05:20;34;0;45;3
2024-05-01 05:30;34;0;43;3
2024-05-01 05:40;35;0;43;3
2024-05-01 05:50;36;0;45;3
2024-05-01 06:00;36;0;46;3
2024-05-01 06:10;37;0;46;3
2024-05-01 06:20;37;0;46;3
2024-05-01 06:30;38;0;48;3
2024-05-01 06:40;39;0;50;4
2024-05-01 06:50;39;0;50;4
2024-05-01 07:00;40;0;50;4
2024-05-01 07:10;40;0;53;4
2024-05-01 07:20;41;0;54;4
2024-05-01 07:30;41;0;50;4
2024-05-01 07:40;41;0;50;4
2024-05-01 07:50;42;0;55;4
2024-05-01 08:00;42;0;60;4
2024-05-01 08:10;42;0;59;4
2024-05-01 08:20;43;0;55;4
2024-05-01 08:30;43;0;56;4
2024-05-01 08:40;43;0;56;4
2024-05-01 08:50;44;0;56;4
2024-05-01 09:00;44;0;53;4
2024-05-01 09:10;45;0;52;4
2024-05-01 09:20;45;0;53;4
2024-05-01 09:30;46;0;52;4
2024-05-01 09:40;47;0;55;4
2024-05-01 09:50;47;0;56;4
2024-05-01 10:00;48;0;55;4
2024-05-01 10:10;50;0;56;4
2024-05-01 10:20;52;0;56;4
2024-05-01 10:30;54;0;59;4
2024-05-01 10:40;56;0;59;4
2024-05-01 10:50;58;0;57;4
2024-05-01 11:00;57;0;60;4
2024-05-01 11:10;58;0;63;4
2024-05-01 11:20;60;0;66;4
2024-05-01 11:30;62;0;64;4
2024-05-01 11:40;63;0;64;4
2024-05-01 11:50;64;0;63;4
2024-05-01 12:00;66;0;65;4
2024-05-01 12:10;66;0;69;4
2024-05-01 12:20;66;0;70;5
2024-05-01 12:30;66;0;68;5
2024-05-01 12:40;67;0;68;4
2024-05-01 12:50;67;0;72;4
2024-05-01 13:00;67;0;75;5
2024-05-01 13:10;67;0;78;5
2024-05-01 13:20;67;0;76;5
2024-05-01 13:30;66;0;71;4
2024-05-01 13:40;66;0;73;5
2024-05-01 13:50;66;0;78;5
2024-05-01 14:00;66;0;73;4
2024-05-01 14:10;66;0;74;4
2024-05-01 14:20;66;0;74;4
2024-05-01 14:30;66;0;69;4
2024-05-01 14:40;66;0;74;4
2024-05-01 14:50;66;0;74;4
2024-05-01 15:00;66;0;70;4
2024-05-01 15:10;66;0;70;4
2024-05-01 15:20;66;0;72;4
2024-05-01 15:30;66;0;79;4
2024-05-01 15:40;67;0;80;4
2024-05-01 15:50;67;0;78;4
2024-05-01 16:00;67;0;81;4
2024-05-01 16:10;67;0;83;5
2024-05-01 16:20;68;0;82;5
2024-05-01 16:30;68;0;80;4
2024-05-01 16:40;68;0;82;5
2024-05-01 16:50;69;0;86;4
2024-05-01 17:00;68;0;83;4
2024-05-01 17:10;68;0;82;4
2024-05-01 17:20;68;0;81;4
2024-05-01 17:30;68;0;83;4
2024-05-01 17:40;69;0;82;4
2024-05-01 17:50;69;0;75;4
2024-05-01 18:00;69;0;78;4
2024-05-01 18:10;69;0;80;5
2024-05-01 18:20;69;0;78;5
2024-05-01 18:30;68;0;82;5
2024-05-01 18:40;68;0;85;5
2024-05-01 18:50;68;0;90;5
2024-05-01 19:00;68;0;90;5
2024-05-01 19:10;68;0;90;5
2024-05-01 19:20;68;0;91;5
2024-05-01 19:30;68;0;86;5
2024-05-01 19:40;69;1;82;4
2024-05-01 19:50;69;1;80;5
2024-05-01 20:00;69;1;78;4
2024-05-01 20:10;70;1;78;4
2024-05-01 20:20;71;1;74;4
2024-05-01 20:30;72;1;73;5
2024-05-01 20:40;73;1;73;4
2024-05-01 20:50;74;1;73;5
2024-05-01 21:00;75;1;76;5
2024-05-01 21:10;76;1;76;5
2024-05-01 21:20;77;1;73;6
2024-05-01 21:30;78;2;74;5
2024-05-01 21:40;80;2;78;5
2024-05-01 21:50;81;2;81;5
2024-05-01 22:00;82;2;82;5
2024-05-01 22:10;83;2;79;5
2024-05-01 22:20;84;2;77;5
2024-05-01 22:30;85;2;76;5
2024-05-01 22:40;86;2;79;5
2024-05-01 22:50;87;2;79;5
2024-05-01 23:00;85;2;76;5
2024-05-01 23:10;86;2;78;5
2024-05-01 23:20;87;2;78;6
2024-05-01 23:30;88;2;;
2024-05-01 23:40;90;3;;
2024-05-01 23:50;91;3;81;5
2024-05-02 00:00;92;3;82;5
2024-05-02 00:10;93;3;83;5
2024-05-02 00:20;94;3;82;5
2024-05-02 00:30;96;3;81;5
2024-05-02 00:40;97;3;83;5
2024-05-02 00:50;98;3;87;5
2024-05-02 01:00;99;3;91;6
2024-05-02 01:10;100;3;91;7
2024-05-02 01:20;101;3;95;7
2024-05-02 01:30;102;4;102;7
2024-05-02 01:40;104;4;101;6
2024-05-02 01:50;105;4;101;7
2024-05-02 02:00;105;4;101;8
2024-05-02 02:10;106;4;97;8
2024-05-02 02:20;107;4;102;7
2024-05-02 02:30;108;4;105;8
2024-05-02 02:40;108;4;105;8
2024-05-02 02:50;109;4;112;8
2024-05-02 03:00;110;4;110;9
2024-05-02 03:10;110;4;115;9
2024-05-02 03:20;111;4;116;9
2024-05-02 03:30;111;4;115;8
2024-05-02 03:40;111;4;119;10
2024-05-02 03:50;112;4;120;10
2024-05-02 04:00;112;4;122;10
2024-05-02 04:10;112;4;127;10
2024-05-02 04:20;113;4;132;11
2024-05-02 04:30;114;4;133;11
2024-05-02 04:40;114;4;141;15
2024-05-02 04:50;114;4;139;15
2024-05-02 05:00;115;4;132;11
2024-05-02 05:10;116;4;145;10
2024-05-02 05:20;116;4;147;10
2024-05-02 05:30;116;4;143;10
2024-05-02 05:40;117;4;154;10
2024-05-02 05:50;118;4;160;10
2024-05-02 06:00;118;4;150;9
2024-05-02 06:10;118;4;140;9
2024-05-02 06:20;118;4;144;10
2024-05-02 06:30;118;4;151;11
2024-05-02 06:40;118;4;149;10
2024-05-02 06:50;118;4;144;10
2024-05-02 07:00;118;4;147;11
2024-05-02 07:10;118;4;147;10
2024-05-02 07:20;117;4;140;9
2024-05-02 07:30;116;4;139;9
2024-05-02 07:40;116;4;147;9
2024-05-02 07:50;116;4;154;9
2024-05-02 08:00;115;4;152;10
2024-05-02 08:10;114;4;138;9
2024-05-02 08:20;114;4;131;9
2024-05-02 08:30;114;4;129;8
2024-05-02 08:40;113;4;135;8
2024-05-02 08:50;112;4;133;8
2024-05-02 09:00;112;4;126;8
2024-05-02 09:10;112;4;129;9
2024-05-02 09:20;111;4;125;9
2024-05-02 09:30;111;4;120;8
2024-05-02 09:40;111;4;117;7
2024-05-02 09:50;110;4;115;7
2024-05-02 10:00;110;4;122;8
2024-05-02 10:10;110;4;125;8
2024-05-02 10:20;110;4;118;7
2024-05-02 10:30;110;4;118;7
2024-05-02 10:40;111;4;124;7
2024-05-02 10:50;111;4;120;8
2024-05-02 11:00;111;4;120;7
2024-05-02 11:10;112;4;124;7
2024-05-02 11:20;112;4;125;7
2024-05-02 11:30;112;4;124;7
2024-05-02 11:40;113;4;128;7
2024-05-02 11:50;114;4;125;7
2024-05-02 12:00;114;4;118;7
2024-05-02 12:10;114;4;118;7
2024-05-02 12:20;115;4;122;7
2024-05-02 12:30;116;4;133;8
2024-05-02 12:40;116;3;141;9
2024-05-02 12:50;116;3;143;8
2024-05-02 13:00;117;3;135;7
2024-05-02 13:10;117;3;125;7
2024-05-02 13:20;118;3;137;8
2024-05-02 13:30;118;3;139;8
2024-05-02 13:40;118;3;138;8
2024-05-02 13:50;119;3;141;8
2024-05-02 14:00;120;3;142;9
2024-05-02 14:10;120;3;143;8
2024-05-02 14:20;121;3;141;8
2024-05-02 14:30;121;4;135;8
2024-05-02 14:40;121;4;130;7
2024-05-02 14:50;122;4;125;7
2024-05-02 15:00;122;4;133;8
2024-05-02 15:10;122;4;143;8
2024-05-02 15:20;121;4;135;8
2024-05-02 15:30;120;4;131;7
2024-05-02 15:40;120;4;125;8
2024-05-02 15:50;120;4;126;8
2024-05-02 16:00;119;4;133;7
2024-05-02 16:10;118;4;130;7
2024-05-02 16:20;118;4;127;7
2024-05-02 16:30;117;4;130;7
2024-05-02 16:40;116;4;132;7
2024-05-02 16:50;116;4;134;7
2024-05-02 17:00;116;5;138;7
2024-05-02 17:10;116;5;134;7
2024-05-02 17:20;115;5;126;6
2024-05-02 17:30;114;6;127;6
2024-05-02 17:40;114;6;129;6
2024-05-02 17:50;114;6;133;6
2024-05-02 18:00;113;6;133;7
2024-05-02 18:10;112;6;128;6
2024-05-02 18:20;112;6;127;6
2024-05-02 18:30;112;6;126;7
2024-05-02 18:40;111;7;132;7
2024-05-02 18:50;110;7;133;6
2024-05-02 19:00;110;7;;
2024-05-02 19:10;110;7;;
2024-05-02 19:20;109;7;122;7
2024-05-02 19:30;109;8;124;8
2024-05-02 19:40;109;8;121;8
2024-05-02 19:50;108;8;119;7
2024-05-02 20:00;107;8;121;8
2024-05-02 20:10;107;8;128;8
2024-05-02 20:20;106;8;124;8
2024-05-02 20:30;106;8;120;8
2024-05-02 20:40;106;9;132;9
2024-05-02 20:50;105;9;129;9
2024-05-02 21:00;105;9;120;9
2024-05-02 21:10;105;9;125;11
2024-05-02 21:20;105;9;126;10
2024-05-02 21:30;104;10;133;10
2024-05-02 21:40;104;10;134;10
2024-05-02 21:50;104;10;122;10
2024-05-02 22:00;104;10;112;9
2024-05-02 22:10;104;10;110;11
2024-05-02 22:20;104;10;119;12
2024-05-02 22:30;104;10;119;12
2024-05-02 22:40;104;11;117;11
2024-05-02 22:50;104;11;118;11
2024-05-02 23:00;104;11;116;11
2024-05-02 23:10;104;11;114;12
2024-05-02 23:20;104;11;112;13
2024-05-02 23:30;104;11;115;11
2024-05-02 23:40;104;11;107;11
2024-05-02 23:50;104;11;106;11
2024-05-03 00:00;104;11;114;14
2024-05-03 00:10;104;11;112;15
2024-05-03 00:20;104;11;118;14
2024-05-03 00:30;104;11;115;13
2024-05-03 00:40;105;11;109;14
2024-05-03 00:50;105;11;111;15
2024-05-03 01:00;105;11;114;13
2024-05-03 01:10;105;11;124;13
2024-05-03 01:20;105;11;133;13
2024-05-03 01:30;106;11;134;13
2024-05-03 01:40;106;11;123;13
2024-05-03 01:50;106;11;124;13
2024-05-03 02:00;106;11;128;12
2024-05-03 02:10;106;11;124;11
2024-05-03 02:20;106;11;119;12
2024-05-03 02:30;106;10;119;13
2024-05-03 02:40;107;10;117;13
2024-05-03 02:50;107;10;105;14
2024-05-03 03:00;107;10;104;14
2024-05-03 03:10;107;10;110;12
2024-05-03 03:20;107;10;106;12
2024-05-03 03:30;106;10;105;14
2024-05-03 03:40;106;10;109;12
2024-05-03 03:50;106;10;107;11
2024-05-03 04:00;106;10;104;13
2024-05-03 04:10;106;10;103;13
2024-05-03 04:20;106;10;109;14
2024-05-03 04:30;106;10;109;14
2024-05-03 04:40;106;9;107;12
2024-05-03 04:50;106;9;111;11
2024-05-03 05:00;106;9;114;13
2024-05-03 05:10;106;9;113;13
2024-05-03 05:20;106;9;113;12
2024-05-03 05:30;106;8;122;12
2024-05-03 05:40;105;8;118;11
2024-05-03 05:50;105;8;113;9
2024-05-03 06:00;105;8;119;9
2024-05-03 06:10;105;8;117;10
2024-05-03 06:20;105;8;114;10
2024-05-03 06:30;104;8;116;10
2024-05-03 06:40;104;8;117;9
2024-05-03 06:50;104;8;121;11
2024-05-03 07:00;104;8;121;11
2024-05-03 07:10;104;8;120;10
2024-05-03 07:20;103;8;126;9
2024-05-03 07:30;103;8;130;9
2024-05-03 07:40;103;7;124;9
2024-05-03 07:50;102;7;117;8
2024-05-03 08:00;102;7;118;9
2024-05-03 08:10;102;7;119;9
2024-05-03 08:20;101;7;120;8
2024-05-03 08:30;100;6;117;8
2024-05-03 08:40;100;6;114;8
2024-05-03 08:50;100;6;111;8
2024-05-03 09:00;99;6;112;9
2024-05-03 09:10;98;6;113;9
2024-05-03 09:20;98;6;109;9
2024-05-03 09:30;98;6;102;8
2024-05-03 09:40;97;6;98;7
2024-05-03 09:50;96;6;100;6
2024-05-03 10:00;96;6;103;6
2024-05-03 10:10;95;6;102;6
2024-05-03 10:20;95;6;99;7
2024-05-03 10:30;94;6;100;7
2024-05-03 10:40;93;5;107;6
2024-05-03 10:50;93;5;103;6
2024-05-03 11:00;92;5;92;6
2024-05-03 11:10;92;5;93;6
2024-05-03 11:20;91;5;96;6
2024-05-03 11:30;90;4;92;6
2024-05-03 11:40;90;4;94;5
2024-05-03 11:50;90;4;95;5
2024-05-03 12:00;89;4;90;6
2024-05-03 12:10;89;4;85;6
2024-05-03 12:20;88;4;82;4
2024-05-03 12:30;88;4;87;4
2024-05-03 12:40;88;4;88;5
2024-05-03 12:50;87;4;83;5
2024-05-03 13:00;87;4;85;5
2024-05-03 13:10;87;4;91;4
2024-05-03 13:20;87;4;95;5
2024-05-03 13:30;86;4;94;5
2024-05-03 13:40;86;3;86;5
2024-05-03 13:50;86;3;84;5
2024-05-03 14:00;86;3;87;5
2024-05-03 14:10;86;3;84;4
2024-05-03 14:20;86;3;84;4
2024-05-03 14:30;86;3;83;4
2024-05-03 14:40;85;3;83;5
2024-05-03 14:50;85;3;82;5
2024-05-03 15:00;85;3;76;5
2024-05-03 15:10;85;3;77;5
2024-05-03 15:20;85;3;78;4
2024-05-03 15:30;85;3;76;4
2024-05-03 15:40;85;3;84;4
2024-05-03 15:50;85;3;90;4
2024-05-03 16:00;85;3;86;5
2024-05-03 16:10;85;3;80;4
2024-05-03 16:20;85;3;84;4
2024-05-03 16:30;85;3;86;4
2024-05-03 16:40;85;3;78;4
2024-05-03 16:50;85;3;75;4
2024-05-03 17:00;84;3;75;4
2024-05-03 17:10;84;3;80;4
2024-05-03 17:20;84;3;82;5
2024-05-03 17:30;84;3;79;4
2024-05-03 17:40;83;3;82;4
2024-05-03 17:50;83;3;82;4
2024-05-03 18:00;83;3;81;4
2024-05-03 18:10;83;3;81;4
2024-05-03 18:20;83;3;81;4
2024-05-03 18:30;83;3;79;5
2024-05-03 18:40;83;3;80;5
2024-05-03 18:50;83;3;78;4
2024-05-03 19:00;83;3;74;4
2024-05-03 19:10;83;3;77;4
2024-05-03 19:20;83;3;79;5
2024-05-03 19:30;83;3;77;5
2024-05-03 19:40;83;3;76;5
2024-05-03 19:50;83;3;74;5
2024-05-03 20:00;83;3;75;5
2024-05-03 20:10;83;3;76;5
2024-05-03 20:20;83;3;77;5
2024-05-03 20:30;84;4;78;6
2024-05-03 20:40;84;4;78;6
2024-05-03 20:50;84;4;74;6
2024-05-03 21:00;84;4;72;6
2024-05-03 21:10;84;4;76;6
2024-05-03 21:20;84;4;79;7
2024-05-03 21:30;84;4;77;8
2024-05-03 21:40;84;4;75;7
2024-05-03 21:50;84;4;74;6
2024-05-03 22:00;84;4;74;6
2024-05-03 22:10;84;4;75;6
2024-05-03 22:20;84;4;79;7
2024-05-03 22:30;84;4;80;6
2024-05-03 22:40;85;5;79;7
2024-05-03 22:50;85;5;78;7
2024-05-03 23:00;82;5;77;6
2024-05-03 23:10;82;5;80;7
2024-05-03 23:20;83;5;81;8
2024-05-03 23:30;83;5;80;8
2024-05-03 23:40;83;5;79;7
2024-05-03 23:50;84;5;81;6
2024-05-04 00:00;84;5;78;6
2024-05-04 00:10;84;5;76;6
2024-05-04 00:20;84;5;77;7
2024-05-04 00:30;84;5;81;7
2024-05-04 00:40;83;5;85;7
2024-05-04 00:50;83;5;86;7
2024-05-04 01:00;83;5;82;7
2024-05-04 01:10;83;5;81;7
2024-05-04 01:20;83;5;84;8
2024-05-04 01:30;82;4;87;8
2024-05-04 01:40;82;4;91;7
2024-05-04 01:50;82;4;94;8
2024-05-04 02:00;81;4;92;9
2024-05-04 02:10;81;4;90;8
2024-05-04 02:20;81;4;92;8
2024-05-04 02:30;80;4;98;8
2024-05-04 02:40;80;4;97;9
2024-05-04 02:50;80;4;96;10
2024-05-04 03:00;80;4;96;9
2024-05-04 03:10;80;4;93;8
2024-05-04 03:20;79;4;93;9
2024-05-04 03:30;79;4;94;10
2024-05-04 03:40;79;3;93;9
2024-05-04 03:50;78;3;88;9
2024-05-04 04:00;78;3;85;8
2024-05-04 04:10;78;3;85;7
2024-05-04 04:20;77;3;84;7
2024-05-04 04:30;76;3;79;7
2024-05-04 04:40;76;3;77;8
2024-05-04 04:50;76;3;78;7
2024-05-04 05:00;75;3;76;5
2024-05-04 05:10;74;3;71;6
2024-05-04 05:20;74;3;72;6
2024-05-04 05:30;73;3;75;6
2024-05-04 05:40;72;3;75;5
2024-05-04 05:50;72;3;69;5
2024-05-04 06:00;71;3;68;4
2024-05-04 06:10;70;3;71;5
2024-05-04 06:20;70;3;68;5
2024-05-04 06:30;70;2;66;5
2024-05-04 06:40;69;2;65;5
2024-05-04 06:50;68;2;62;5
2024-05-04 07:00;68;2;62;5
2024-05-04 07:10;67;2;67;4
2024-05-04 07:20;67;2;66;4
2024-05-04 07:30;66;2;66;5
2024-05-04 07:40;65;2;67;4
2024-05-04 07:50;65;2;64;4
2024-05-04 08:00;64;2;64;5
2024-05-04 08:10;64;2;61;5
2024-05-04 08:20;63;2;58;5
2024-05-04 08:30;62;2;57;4
2024-05-04 08:40;62;2;57;4
2024-05-04 08:50;62;2;58;4
2024-05-04 09:00;61;2;60;4
2024-05-04 09:10;60;2;60;4
2024-05-04 09:20;60;2;56;4
2024-05-04 09:30;59;2;57;4
2024-05-04 09:40;58;1;56;4
2024-05-04 09:50;58;1;52;4
2024-05-04 10:00;57;1;52;3
2024-05-04 10:10;56;1;52;3
2024-05-04 10:20;56;1;53;3
2024-05-04 10:30;56;1;51;3
2024-05-04 10:40;55;1;53;3
2024-05-04 10:50;54;1;54;3
2024-05-04 11:00;54;1;50;3
2024-05-04 11:10;54;1;48;3
2024-05-04 11:20;53;1;48;3
2024-05-04 11:30;52;1;50;3
2024-05-04 11:40;52;1;48;4
2024-05-04 11:50;52;1;47;4
2024-05-04 12:00;51;1;50;4
2024-05-04 12:10;51;1;48;3
2024-05-04 12:20;50;1;46;3
2024-05-04 12:30;50;1;46;3
2024-05-04 12:40;50;1;45;3
2024-05-04 12:50;49;1;47;3
2024-05-04 13:00;49;1;49;3
2024-05-04 13:10;49;1;46;3
2024-05-04 13:20;48;1;50;3
2024-05-04 13:30;48;1;50;3
2024-05-04 13:40;48;1;47;3
2024-05-04 13:50;47;1;49;3
2024-05-04 14:00;47;1;46;2
2024-05-04 14:10;47;1;45;2
2024-05-04 14:20;47;1;43;2
2024-05-04 14:30;46;0;47;2
2024-05-04 14:40;46;0;48;2
2024-05-04 14:50;46;0;48;2
2024-05-04 15:00;46;0;52;2
2024-05-04 15:10;46;0;51;2
2024-05-04 15:20;46;0;49;2
2024-05-04 15:30;46;0;45;2
2024-05-04 15:40;46;0;45;2
2024-05-04 15:50;46;0;49;2
2024-05-04 16:00;46;0;48;2
2024-05-04 16:10;46;0;46;2
2024-05-04 16:20;46;0;47;2
2024-05-04 16:30;46;0;46;2
2024-05-04 16:40;46;0;42;2
2024-05-04 16:50;46;0;46;3
2024-05-04 17:00;46;0;49;2
2024-05-04 17:10;46;0;47;2
2024-05-04 17:20;46;0;43;3
2024-05-04 17:30;46;0;42;3
2024-05-04 17:40;45;0;42;2
2024-05-04 17:50;45;0;40;3
2024-05-04 18:00;45;0;39;2
2024-05-04 18:10;45;0;41;2
2024-05-04 18:20;46;0;45;2
2024-05-04 18:30;46;0;44;2
2024-05-04 18:40;46;0;42;2
2024-05-04 18:50;47;0;41;3
2024-05-04 19:00;47;0;41;3
2024-05-04 19:10;46;0;41;3
2024-05-04 19:20;46;0;42;3
2024-05-04 19:30;46;0;42;3
2024-05-04 19:40;45;0;42;4
2024-05-04 19:50;44;0;45;4
2024-05-04 20:00;45;0;44;3
2024-05-04 20:10;44;0;41;3
2024-05-04 20:20;44;0;40;2
2024-05-04 20:30;44;0;40;2
2024-05-04 20:40;43;0;39;2
2024-05-04 20:50;42;0;39;2
2024-05-04 21:00;42;0;39;2
2024-05-04 21:10;42;0;41;2
2024-05-04 21:20;41;0;41;2
2024-05-04 21:30;40;0;39;2
2024-05-04 21:40;40;0;41;2
2024-05-04 21:50;40;0;40;2
2024-05-04 22:00;39;0;35;2
2024-05-04 22:10;39;0;35;2
2024-05-04 22:20;38;0;37;2
2024-05-04 22:30;38;0;37;2
2024-05-04 22:40;38;0;34;2
2024-05-04 22:50;37;0;33;3
2024-05-04 23:00;37;0;33;3
2024-05-04 23:10;36;0;34;3
2024-05-04 23:20;36;0;34;3
2024-05-04 23:30;36;0;35;3
2024-05-04 23:40;35;0;35;3
2024-05-04 23:50;34;0;34;2
2024-05-05 00:00;34;0;33;2
2024-05-05 00:10;34;0;33;3
2024-05-05 00:20;34;0;32;3
2024-05-05 00:30;34;0;33;2
2024-05-05 00:40;35;0;32;2
2024-05-05 00:50;35;0;30;2
2024-05-05 01:00;35;0;31;3
2024-05-05 01:10;35;0;29;3
2024-05-05 01:20;35;0;27;3
2024-05-05 01:30;35;0;26;3
2024-05-05 01:40;35;0;26;3
2024-05-05 01:50;35;0;25;3
2024-05-05 02:00;35;0;26;3
2024-05-05 02:10;35;0;27;3
2024-05-05 02:20;36;0;26;3
2024-05-05 02:30;36;0;27;3
2024-05-05 02:40;36;0;28;3
2024-05-05 02:50;37;0;29;3
2024-05-05 03:00;37;0;29;3
2024-05-05 03:10;38;0;29;3
2024-05-05 03:20;38;0;29;2
2024-05-05 03:30;38;0;28;2
2024-05-05 03:40;39;0;29;2
2024-05-05 03:50;40;0;27;2
2024-05-05 04:00;40;0;26;2
2024-05-05 04:10;41;0;26;2
2024-05-05 04:20;42;0;25;2
2024-05-05 04:30;42;0;25;2
2024-05-05 04:40;43;0;25;2
2024-05-05 04:50;44;0;24;2
2024-05-05 05:00;34;0;24;2
2024-05-05 05:10;34;0;23;2
2024-05-05 05:20;34;0;24;2
2024-05-05 05:30;34;0;24;3
2024-05-05 05:40;35;0;24;3
2024-05-05 05:50;35;0;24;2
2024-05-05 06:00;35;0;23;2
2024-05-05 06:10;36;0;23;2
2024-05-05 06:20;36;0;23;2
2024-05-05 06:30;36;0;24;2
2024-05-05 06:40;37;0;23;2
2024-05-05 06:50;38;0;22;2
2024-05-05 07:00;38;0;24;2
2024-05-05 07:10;40;0;24;2
2024-05-05 07:20;43;0;22;2
2024-05-05 07:30;45;0;22;3
2024-05-05 07:40;47;0;21;3
2024-05-05 07:50;50;0;20;3
2024-05-05 08:00;50;0;22;3
2024-05-05 08:10;52;0;22;3
2024-05-05 08:20;53;0;21;3
2024-05-05 08:30;54;0;23;3
2024-05-05 08:40;56;0;25;3
2024-05-05 08:50;58;0;26;3
2024-05-05 09:00;59;0;29;3
2024-05-05 09:10;60;0;30;3
2024-05-05 09:20;62;0;33;3
2024-05-05 09:30;64;0;34;3
2024-05-05 09:40;65;0;34;3
2024-05-05 09:50;66;0;37;3
2024-05-05 10:00;68;0;40;3
2024-05-05 10:10;70;0;44;3
2024-05-05 10:20;72;0;50;3
2024-05-05 10:30;74;0;57;4
2024-05-05 10:40;75;0;66;4
2024-05-05 10:50;77;0;83;4
2024-05-05 11:00;76;0;101;5
2024-05-05 11:10;77;0;104;5
2024-05-05 11:20;78;0;99;5
2024-05-05 11:30;80;0;99;5
2024-05-05 11:40;81;0;101;5
2024-05-05 11:50;82;0;104;5
2024-05-05 12:00;83;0;102;5
2024-05-05 12:10;83;0;101;5
2024-05-05 12:20;83;0;102;5
2024-05-05 12:30;84;0;99;5
2024-05-05 12:40;84;0;97;5
2024-05-05 12:50;84;0;91;5
2024-05-05 13:00;84;0;81;4
2024-05-05 13:10;84;0;81;4
2024-05-05 13:20;83;0;85;4
2024-05-05 13:30;83;0;89;4
2024-05-05 13:40;83;0;87;4
2024-05-05 13:50;82;0;75;4
2024-05-05 14:00;82;0;70;4
2024-05-05 14:10;82;0;75;4
2024-05-05 14:20;81;0;78;4
2024-05-05 14:30;81;0;79;4
2024-05-05 14:40;81;0;77;4
2024-05-05 14:50;80;0;73;4
2024-05-05 15:00;80;0;73;4
2024-05-05 15:10;79;0;80;4
2024-05-05 15:20;79;0;82;3
2024-05-05 15:30;78;0;80;3
2024-05-05 15:40;77;0;79;3
2024-05-05 15:50;77;0;84;3
2024-05-05 16:00;76;0;89;3
2024-05-05 16:10;76;0;84;3
2024-05-05 16:20;75;0;80;4
2024-05-05 16:30;74;0;78;3
2024-05-05 16:40;74;0;74;3
2024-05-05 16:50;74;0;76;3
2024-05-05 17:00;73;0;76;3
2024-05-05 17:10;72;0;70;3
2024-05-05 17:20;72;0;66;3
2024-05-05 17:30;71;0;65;3
2024-05-05 17:40;70;0;66;3
2024-05-05 17:50;70;0;63;3
2024-05-05 18:00;69;0;60;3
2024-05-05 18:10;68;0;57;3
2024-05-05 18:20;68;0;59;3
2024-05-05 18:30;68;0;60;3
2024-05-05 18:40;67;0;55;3
2024-05-05 18:50;66;0;55;3
2024-05-05 19:00;66;0;54;3
2024-05-05 19:10;65;0;53;3
2024-05-05 19:20;65;0;54;3
2024-05-05 19:30;64;0;54;3
2024-05-05 19:40;63;0;51;2
2024-05-05 19:50;63;0;52;2
2024-05-05 20:00;62;0;56;2
2024-05-05 20:10;62;0;56;2
2024-05-05 20:20;61;0;52;2
2024-05-05 20:30;60;0;49;2
2024-05-05 20:40;60;0;52;2
2024-05-05 20:50;60;0;51;3
2024-05-05 21:00;59;0;48;3
2024-05-05 21:10;59;0;49;3
2024-05-05 21:20;58;0;46;3
2024-05-05 21:30;58;0;46;3
2024-05-05 21:40;58;0;46;3
2024-05-05 21:50;57;0;47;3
2024-05-05 22:00;57;0;48;3
2024-05-05 22:10;56;0;45;2
2024-05-05 22:20;56;0;43;2
2024-05-05 22:30;56;0;43;2
2024-05-05 22:40;55;0;44;2
2024-05-05 22:50;54;0;43;2
2024-05-05 23:00;54;0;42;2
2024-05-05 23:10;54;0;42;2
2024-05-05 23:20;53;0;43;2
2024-05-05 23:30;53;0;44;3
2024-05-05 23:40;53;0;43;3
2024-05-05 23:50;52;0;42;3
2024-05-06 00:00;52;0;42;3
2024-05-06 00:10;52;0;42;3
2024-05-06 00:20;51;0;40;2
2024-05-06 00:30;50;0;40;3
2024-05-06 00:40;50;0;41;3
2024-05-06 00:50;50;0;44;3
2024-05-06 01:00;49;0;45;3
2024-05-06 01:10;48;0;;
2024-05-06 01:20;48;0;;
2024-05-06 01:30;48;0;;
2024-05-06 01:40;47;0;;
2024-05-06 01:50;46;0;;
2024-05-06 02:00;46;0;;
2024-05-06 02:10;45;0;;